Date String (YYYY-MM-DD hh:mm:ss) UTC,Instrument flags,absolute air pressure of the measurement (hPa),sample flow rate (lpm),inlet stack bypass flow (lpm),air temperature of the measurement (°C),ambient temperature measured by the external sensor (°C),aerosol sample conditioner tube jacket temperature (°C),OPC LED temperature (°C),internal box temperature (°C),relative humidity of the measurement (%),span deviation,mass concentration of particles derived from Lorenz-Mie calculation of OPC scattering (μg/m³),mass concentration of particles derived from Lorenz-Mie calculation of OPC scattering (μg/m³),mass concentration of particles derived from Lorenz-Mie calculation of OPC scattering (μg/m³)
DateTimeUTC,F1_M11,P_M11,Q1_M11,Q2_M11,T1_M11,T2_M11,T3_M11,T4_M11,T5_M11,U1_M11,ZSPAN_M11,X0_M11,X2_M11,X1_M11
2023-11-24 19:00:00,SystemResetWarning,0832.0,5.01,000.00,019.2,019.0,000.0,027.4,020.4,12.2,0000.0,0007.24,0003.24,0002.78
2023-11-24 19:01:00,SystemResetWarning,0832.0,5.00,000.00,019.2,018.9,000.0,027.4,020.4,12.1,0000.0,0007.23,0003.23,0002.80
2023-11-24 19:02:00,SystemResetWarning,0832.0,5.00,000.00,019.2,018.7,000.0,027.4,020.3,12.1,0000.0,0007.12,0003.22,0002.82
2023-11-24 19:03:00,SystemResetWarning,0832.0,5.00,000.00,019.2,018.6,000.0,027.4,020.3,12.1,0000.0,0007.06,0003.21,0002.82
2023-11-24 19:04:00,SystemResetWarning,0832.0,5.00,000.00,019.2,018.6,000.0,027.4,020.3,12.1,0000.0,0006.73,0003.23,0002.85
2023-11-24 19:05:00,SystemResetWarning,0831.9,5.00,000.00,019.1,018.5,000.0,027.4,020.3,12.2,0000.0,0005.31,0003.24,0002.89
2023-11-24 19:06:00,SystemResetWarning,0831.9,5.00,000.00,019.1,018.4,000.0,027.4,020.2,12.1,0000.0,0005.27,0003.27,0002.92
2023-11-24 19:07:00,SystemResetWarning,0831.8,5.01,000.00,019.1,018.4,000.0,027.4,020.2,12.2,0000.0,0005.30,0003.30,0002.95
2023-11-24 19:08:00,SystemResetWarning,0831.9,5.01,000.00,019.1,018.3,000.0,027.4,020.2,12.2,0000.0,0005.27,0003.30,0002.96
2023-11-24 19:09:00,SystemResetWarning,0832.2,4.98,000.00,019.1,018.3,000.0,027.4,020.2,12.2,0000.0,0005.04,0003.26,0002.95
2023-11-24 19:10:00,SystemResetWarning,0832.2,5.00,000.00,019.1,018.3,000.0,027.4,020.1,12.3,0000.0,0005.07,0003.24,0002.96
2023-11-24 19:11:00,SystemResetWarning,0832.3,5.01,000.00,019.0,018.3,000.0,027.4,020.2,12.3,0000.0,0004.78,0003.24,0002.98
2023-11-24 19:12:00,SystemResetWarning,0832.3,4.99,000.00,019.0,018.2,000.0,027.4,020.1,12.3,0000.0,0004.73,0003.27,0003.00
2023-11-24 19:13:00,SystemResetWarning,0832.0,4.99,000.00,019.0,018.2,000.0,027.4,020.1,12.3,0000.0,0004.73,0003.27,0003.01
2023-11-24 19:14:00,SystemResetWarning,0831.7,5.00,000.00,019.0,018.2,000.0,027.4,020.1,12.3,0000.0,0004.71,0003.28,0003.02
2023-11-24 19:15:00,SystemResetWarning,0831.7,5.01,000.00,019.0,018.2,000.0,027.3,020.1,12.3,0000.0,0004.55,0003.28,0003.02
2023-11-24 19:16:00,SystemResetWarning,0831.7,5.00,000.00,019.0,018.2,000.0,027.3,020.0,12.3,0000.0,0004.49,0003.27,0003.01
2023-11-24 19:17:00,SystemResetWarning,0831.7,4.99,000.00,019.0,018.1,000.0,027.3,020.1,12.3,0000.0,0004.45,0003.27,0003.01
2023-11-24 19:18:00,SystemResetWarning,0831.7,4.99,000.00,019.0,018.1,000.0,027.3,020.1,12.3,0000.0,0004.36,0003.25,0003.00
2023-11-24 19:19:00,SystemResetWarning,0831.7,5.00,000.00,019.0,018.1,000.0,027.3,020.0,12.3,0000.0,0004.78,0003.28,0003.01
2023-11-24 19:20:00,SystemResetWarning,0831.7,5.01,000.00,018.9,018.1,000.0,027.3,020.0,12.3,0000.0,0005.52,0003.29,0003.03
2023-11-24 19:21:00,SystemResetWarning,0831.7,5.01,000.00,018.9,018.1,000.0,027.3,020.0,12.3,0000.0,0005.52,0003.31,0003.04
2023-11-24 19:22:00,SystemResetWarning,0831.6,4.99,000.00,018.9,018.1,000.0,027.3,020.0,12.3,0000.0,0005.47,0003.29,0003.03
2023-11-24 19:23:00,SystemResetWarning,0831.6,5.00,000.00,018.9,018.0,000.0,027.3,020.0,12.3,0000.0,0005.31,0003.26,0003.01
2023-11-24 19:24:00,SystemResetWarning,0831.6,4.99,000.00,018.9,018.0,000.0,027.3,020.0,12.3,0000.0,0005.59,0003.28,0003.01
2023-11-24 19:25:00,SystemResetWarning,0831.6,5.00,000.00,018.9,018.0,000.0,027.3,020.0,12.3,0000.0,0006.19,0003.29,0003.02
2023-11-24 19:26:00,SystemResetWarning,0831.6,5.00,000.00,018.9,018.0,000.0,027.3,020.0,12.3,0000.0,0006.12,0003.27,0003.01
2023-11-24 19:27:00,SystemResetWarning,0831.6,5.01,000.00,018.9,018.0,000.0,027.3,020.0,12.3,0000.0,0006.51,0003.28,0003.01
2023-11-24 19:28:00,SystemResetWarning,0831.6,5.01,000.00,018.9,018.0,000.0,027.2,020.0,12.4,0000.0,0006.55,0003.27,0003.00
2023-11-24 19:29:00,SystemResetWarning,0831.6,4.99,000.00,018.9,018.0,000.0,027.3,020.0,12.5,0000.0,0006.73,0003.29,0003.00
2023-11-24 19:30:00,SystemResetWarning,0831.5,4.99,000.00,018.9,018.0,000.0,027.2,020.0,12.6,0000.0,0006.53,0003.29,0003.01
2023-11-24 19:31:00,SystemResetWarning,0831.5,5.00,000.00,018.9,018.0,000.0,027.2,020.0,12.6,0000.0,0005.73,0003.31,0003.02
2023-11-24 19:32:00,SystemResetWarning,0831.5,5.00,000.00,018.9,018.0,000.0,027.2,020.0,12.6,0000.0,0005.92,0003.33,0003.02
2023-11-24 19:33:00,SystemResetWarning,0831.5,5.00,000.00,018.9,018.0,000.0,027.2,020.0,12.6,0000.0,0006.03,0003.35,0003.02
2023-11-24 19:34:00,SystemResetWarning,0831.5,5.01,000.00,018.9,018.0,000.0,027.2,020.0,12.6,0000.0,0006.99,0003.37,0003.03
2023-11-24 19:35:00,SystemResetWarning,0831.5,5.00,000.00,018.9,018.0,000.0,027.2,020.0,12.5,0000.0,0006.96,0003.36,0003.02
2023-11-24 19:36:00,SystemResetWarning,0831.4,4.99,000.00,018.9,018.0,000.0,027.2,020.0,12.5,0000.0,0006.28,0003.36,0003.00
2023-11-24 19:37:00,SystemResetWarning,0831.4,4.99,000.00,018.9,017.9,000.0,027.2,020.0,12.5,0000.0,0006.24,0003.35,0003.01
2023-11-24 19:38:00,SystemResetWarning,0831.4,5.00,000.00,018.9,018.0,000.0,027.2,020.2,12.5,0000.0,0006.85,0003.33,0002.99
2023-11-24 19:39:00,SystemResetWarning,0831.4,5.01,000.00,019.0,018.5,000.0,027.2,020.7,12.5,0000.0,0007.75,0003.34,0003.00
2023-11-24 19:40:00,SystemResetWarning,0831.4,5.00,000.00,019.1,019.2,000.0,027.3,021.0,12.4,0000.0,0007.68,0003.35,0003.01
2023-11-24 19:41:00,SystemResetWarning,0831.4,4.99,000.00,019.2,019.2,000.0,027.3,020.8,12.4,0000.0,0007.90,0003.35,0003.02
2023-11-24 19:42:00,SystemResetWarning,0831.3,5.00,000.00,019.2,019.1,000.0,027.3,020.6,12.4,0000.0,0008.18,0003.35,0003.01
2023-11-24 19:43:00,SystemResetWarning,0831.3,5.00,000.00,019.2,018.9,000.0,027.3,020.4,12.5,0000.0,0008.07,0003.34,0003.01
2023-11-24 19:44:00,SystemResetWarning,0831.3,5.00,000.00,019.1,018.8,000.0,027.3,020.4,12.5,0000.0,0008.03,0003.33,0003.01
2023-11-24 19:45:00,SystemResetWarning,0831.3,5.00,000.00,019.1,018.7,000.0,027.3,020.3,12.5,0000.0,0007.55,0003.33,0003.01
2023-11-24 19:46:00,SystemResetWarning,0831.3,5.00,000.00,019.1,018.6,000.0,027.3,020.2,12.5,0000.0,0007.45,0003.33,0003.02
2023-11-24 19:47:00,SystemResetWarning,0831.3,5.00,000.00,019.1,018.5,000.0,027.3,020.2,12.6,0000.0,0007.41,0003.31,0003.03
2023-11-24 19:48:00,SystemResetWarning,0831.3,5.02,000.00,019.1,018.5,000.0,027.3,020.2,12.5,0000.0,0007.47,0003.33,0003.03
2023-11-24 19:49:00,SystemResetWarning,0831.3,5.00,000.00,019.0,018.4,000.0,027.3,020.2,12.4,0000.0,0006.87,0003.34,0003.03
2023-11-24 19:50:00,SystemResetWarning,0831.2,4.99,000.00,019.0,018.3,000.0,027.3,020.1,12.4,0000.0,0005.31,0003.33,0003.03
2023-11-24 19:51:00,SystemResetWarning,0831.3,4.99,000.00,019.0,018.3,000.0,027.3,020.1,12.4,0000.0,0005.35,0003.33,0003.03
2023-11-24 19:52:00,SystemResetWarning,0831.2,5.01,000.00,019.0,018.2,000.0,027.3,020.1,12.4,0000.0,0005.21,0003.34,0003.03
2023-11-24 19:53:00,SystemResetWarning,0831.2,5.01,000.00,019.0,018.2,000.0,027.3,020.1,12.5,0000.0,0004.55,0003.33,0003.02
2023-11-24 19:54:00,SystemResetWarning,0831.2,5.00,000.00,019.0,018.2,000.0,027.3,020.1,12.5,0000.0,0004.58,0003.33,0003.02
2023-11-24 19:55:00,SystemResetWarning,0831.2,5.00,000.00,019.0,018.1,000.0,027.3,020.1,12.5,0000.0,0004.57,0003.32,0003.00
2023-11-24 19:56:00,SystemResetWarning,0831.2,4.99,000.00,018.9,018.1,000.0,027.3,020.1,12.4,0000.0,0004.56,0003.32,0002.98
2023-11-24 19:57:00,SystemResetWarning,0831.2,4.99,000.00,018.9,018.1,000.0,027.3,020.0,12.4,0000.0,0004.67,0003.33,0002.97
2023-11-24 19:58:00,SystemResetWarning,0831.1,5.00,000.00,018.9,018.1,000.0,027.3,020.0,12.4,0000.0,0004.82,0003.35,0002.95
2023-11-24 19:59:00,SystemResetWarning,0831.1,5.00,000.00,018.9,018.0,000.0,027.3,020.0,12.3,0000.0,0004.81,0003.34,0002.92
